This is the latest recevied weather packets stored in our database for station/object KQ4UPF. If no packets are shown the sender has not sent any weather packets the latest 1 day(s).
| Time | Temp. | Humidity | Pressure | Rain* | Wind** | Luminosity | Snow |
|---|---|---|---|---|---|---|---|
| 1778007296 | 25.56° C | 46% | 1014.2 hPa | 0 mm | 0 m/s | 903 W/m² | - |
| 1778006992 | 25.56° C | 46% | 1014.4 hPa | 0 mm | 0.89 m/s, 114° | 903 W/m² | - |
| 1778006689 | 25.56° C | 46% | 1014.6 hPa | 0 mm | 0.45 m/s, 265° | 853 W/m² | - |
| 1778006385 | 25.56° C | 46% | 1014.4 hPa | 0 mm | 1.79 m/s, 335° | 974 W/m² | - |
| 1778006082 | 25.56° C | 41% | 1014.5 hPa | 0 mm | 1.34 m/s, 74° | 931 W/m² | - |
| 1778005779 | 25.56° C | 42% | 1014.5 hPa | 0 mm | 0.89 m/s, 212° | 965 W/m² | - |
| 1778005476 | 25.56° C | 50% | 1014.4 hPa | 0 mm | 0.45 m/s, 53° | 990 W/m² | - |
| 1778005172 | 25.56° C | 45% | 1014.4 hPa | 0 mm | 0.45 m/s, 60° | 957 W/m² | - |
| 1778004870 | 25.56° C | 48% | 1014.4 hPa | 0 mm | 0.45 m/s, 313° | 1043 W/m² | - |
| 1778004566 | 25.56° C | 42% | 1014.4 hPa | 0 mm | 0.89 m/s, 339° | 1074 W/m² | - |
| 1778004263 | 25.56° C | 53% | 1014.4 hPa | 0 mm | 0.45 m/s, 317° | 931 W/m² | - |
| 1778003959 | 25.56° C | 42% | 1014.7 hPa | 0 mm | 1.34 m/s, 322° | 1044 W/m² | - |
| 1778003656 | 25.56° C | 44% | 1014.8 hPa | 0 mm | 0.89 m/s, 13° | 735 W/m² | - |
| 1778003352 | 25.56° C | 45% | 1014.7 hPa | 0 mm | 0.89 m/s, 85° | 940 W/m² | - |
| 1778003050 | 25° C | 45% | 1014.5 hPa | 0 mm | 0.45 m/s, 212° | 1075 W/m² | - |
| 1778002746 | 25° C | 46% | 1014.7 hPa | 0 mm | 1.79 m/s, 139° | 1006 W/m² | - |
| 1778002442 | 24.44° C | 45% | 1014.9 hPa | 0 mm | 1.79 m/s, 0° | 824 W/m² | - |
| 1778002139 | 24.44° C | 46% | 1015.1 hPa | 0 mm | 2.24 m/s, 235° | 766 W/m² | - |
| 1778001837 | 25° C | 43% | 1015.2 hPa | 0 mm | 0.89 m/s, 101° | 862 W/m² | - |
| 1778001537 | 24.44° C | 44% | 1015.2 hPa | 0 mm | 0.89 m/s, 173° | 1087 W/m² | - |
| 1778001234 | 24.44° C | 43% | 1015 hPa | 0 mm | 0.89 m/s, 19° | 1067 W/m² | - |
| 1778000930 | 24.44° C | 46% | 1015.1 hPa | 0 mm | 1.79 m/s, 129° | 575 W/m² | - |
| 1778000627 | 24.44° C | 44% | 1015.1 hPa | 0 mm | 0.89 m/s, 197° | 883 W/m² | - |
| 1778000322 | 23.89° C | 43% | 1015.2 hPa | 0 mm | 0.89 m/s, 64° | 878 W/m² | - |
| 1778000018 | 23.89° C | 46% | 1015.2 hPa | 0 mm | 1.34 m/s, 157° | 785 W/m² | - |
* Rain latest hour (hover to see other rain measurements)
** Current wind speed in m/s (hover to see current wind gust speed)